Stations météo

réclame
Mon MeteoGroup
Santander, Espagne (8023): Température de l'air & dewpoint: 14.09.2018 22:00:00 - 20.09.2018 22:00:00 (CEST)Santander, Espagne (8023): Vitesse du vent: 14.09.2018 22:00:00 - 20.09.2018 22:00:00 (CEST)Santander, Espagne (8023): Direction du vent: 14.09.2018 22:00:00 - 20.09.2018 22:00:00 (CEST)Santander, Espagne (8023): reduced air pressure: 14.09.2018 22:00:00 - 20.09.2018 22:00:00 (CEST)Santander, Espagne (8023): visibility: 14.09.2018 22:00:00 - 20.09.2018 22:00:00 (CEST)Santander, Espagne (8023): Quantités de précipitations: 14.09.2018 22:00:00 - 20.09.2018 22:00:00 (CEST)
Date & Time tt [°C] td [°C] ff [km/h] ff [knt] dd ppp [hPa] vv [km] rr [mm]
20.09.2018 22:00:00 19,3 18,0 5 3 W 1018,2 2,8 0,0
20.09.2018 21:00:00 19,6 18,1 5 3 WSW 1017,7 3,8 0,0
20.09.2018 20:00:00 20,0 18,3 8 4 WSW 1017,5 3,0 -
20.09.2018 19:00:00 20,9 18,8 11 6 W 1017,6 4,8 0,0
20.09.2018 18:00:00 21,1 19,0 13 7 WNW 1017,5 4,2 0,0
20.09.2018 17:00:00 22,4 19,9 9 5 WNW 1017,8 5 -
20.09.2018 16:00:00 21,6 19,5 15 8 WNW 1018,2 - 0,0
20.09.2018 15:00:00 21,3 19,0 13 7 WNW 1018,1 - 0,0
20.09.2018 14:00:00 21,1 18,3 13 7 W 1018,6 7 -
20.09.2018 13:00:00 21,3 19,4 11 6 WNW 1019,2 - 0,0
20.09.2018 12:00:00 20,8 19,6 13 7 W 1019,7 4,7 0,0
20.09.2018 11:00:00 20,6 19,3 8 4 NE 1019,6 2,0 -
20.09.2018 10:00:00 19,9 19,4 8 4 E 1019,2 4,1 0,0
20.09.2018 09:00:00 18,9 18,6 5 3 E 1019,5 2,5 0,0
20.09.2018 08:00:00 18,6 18,3 5 3 E 1019,8 9 -
20.09.2018 07:00:00 18,4 17,9 8 4 SE 1020,0 1,9 0,0
20.09.2018 06:00:00 18,6 17,9 9 5 SE 1020,5 2,9 0,0
20.09.2018 05:00:00 19,2 18,5 2 1 SE 1021,0 4,2 -
20.09.2018 04:00:00 18,8 18,0 5 3 SE 1021,3 3,2 0,0
20.09.2018 03:00:00 19,1 18,3 5 3 WSW 1021,8 4,6 0,0
20.09.2018 02:00:00 18,9 18,1 11 6 W 1022,2 10 -
20.09.2018 01:00:00 18,8 18,0 11 6 WSW 1022,6 3,5 0,0
20.09.2018 00:00:00 19,0 18,0 11 6 W 1022,6 3,7 0,0
19.09.2018 23:00:00 19,3 18,3 9 5 WSW 1022,6 10 -
19.09.2018 22:00:00 19,2 18,0 11 6 WSW 1022,4 4,0 0,0
19.09.2018 21:00:00 19,6 18,1 11 6 WSW 1022,0 4,1 0,0
19.09.2018 20:00:00 20,4 18,7 9 5 WSW 1021,6 15 -
19.09.2018 19:00:00 20,5 18,4 13 7 W 1021,6 - 0,0
19.09.2018 18:00:00 20,9 18,7 15 8 W 1021,3 6 0,0
19.09.2018 17:00:00 20,7 18,1 15 8 W 1021,5 12 -
19.09.2018 16:00:00 20,9 18,3 16 9 W 1021,6 6 0,0
19.09.2018 15:00:00 21,6 18,6 15 8 W 1021,9 7 0,0
19.09.2018 14:00:00 21,4 18,6 15 8 WNW 1021,7 12 -
19.09.2018 13:00:00 21,0 18,6 13 7 WNW 1021,7 6 0,0
19.09.2018 12:00:00 20,6 19,4 9 5 WNW 1021,6 - 0,0
19.09.2018 11:00:00 19,6 19,1 9 5 W 1021,5 8 -
19.09.2018 10:00:00 18,6 18,3 13 7 W 1021,2 2,9 0,0
19.09.2018 09:00:00 18,3 18,0 9 5 WSW 1020,8 3,7 0,0
19.09.2018 08:00:00 18,2 17,9 9 5 SW 1020,4 2,0 -
19.09.2018 07:00:00 18,6 18,3 4 2 NW 1019,7 1,9 0,0
19.09.2018 06:00:00 18,3 18,0 4 2 NW 1019,2 1,8 0,0
19.09.2018 05:00:00 18,5 18,0 2 1 NNE 1018,9 8 -
19.09.2018 04:00:00 18,6 18,1 5 3 S 1019,2 2,8 0,0
19.09.2018 03:00:00 18,6 18,1 11 6 S 1019,9 2,6 0,0
19.09.2018 02:00:00 18,4 17,7 8 4 WSW 1020,2 1,0 -
19.09.2018 01:00:00 19,0 18,2 4 2 NW 1020,2 3,4 0,0
19.09.2018 00:00:00 19,1 18,3 8 4 SSE 1019,6 4,3 0,0
18.09.2018 23:00:00 19,2 18,2 8 4 SE 1019,4 10 -
18.09.2018 22:00:00 19,5 18,3 4 2 W 1019,6 4,7 0,0
18.09.2018 21:00:00 19,9 18,4 2 1 W 1018,9 4,9 0,0
18.09.2018 20:00:00 20,4 18,5 5 3 WSW 1018,4 10 -
18.09.2018 19:00:00 21,6 18,6 5 3 E 1018,2 8 0,0
18.09.2018 18:00:00 21,6 19,3 4 2 NNE 1017,8 7 0,0
18.09.2018 17:00:00 21,1 19,6 9 5 N 1017,6 12 -
18.09.2018 16:00:00 19,8 18,5 11 6 NNW 1017,2 4,5 0,0
18.09.2018 15:00:00 20,5 18,1 11 6 NNW 1016,9 6 0,0
18.09.2018 14:00:00 21,0 17,6 9 5 NW 1017,3 10 -
18.09.2018 13:00:00 21,5 17,9 8 4 NNW 1017,5 6 0,0
18.09.2018 12:00:00 21,3 18,5 9 5 NW 1017,8 6 0,0
18.09.2018 11:00:00 21,7 18,1 8 4 WSW 1017,5 10 -
18.09.2018 10:00:00 19,6 17,4 9 5 WSW 1016,9 8 0,0
18.09.2018 09:00:00 18,4 16,4 11 6 SW 1016,8 8 0,0
18.09.2018 08:00:00 17,7 15,7 11 6 WSW 1016,3 12 -
18.09.2018 07:00:00 17,8 15,2 13 7 WSW 1015,9 8 0,0
18.09.2018 06:00:00 17,8 14,7 15 8 W 1015,6 8 0,0
18.09.2018 05:00:00 19,0 14,5 8 4 SSE 1015,2 15 -
18.09.2018 04:00:00 18,8 14,5 8 4 SSE 1015,0 10 0,0
18.09.2018 03:00:00 19,7 14,3 8 4 S 1015,0 9 0,0
18.09.2018 02:00:00 20,5 14,6 9 5 WSW 1015,5 15 -
18.09.2018 01:00:00 20,2 14,8 9 5 WSW 1015,8 11 0,0
18.09.2018 00:00:00 20,0 15,4 13 7 W 1016,0 9 0,0
17.09.2018 23:00:00 20,2 15,8 11 6 SSW 1015,9 12 -
17.09.2018 22:00:00 19,6 16,6 13 7 WSW 1015,6 10 0,0
17.09.2018 21:00:00 19,4 16,2 18 10 W 1014,8 10 0,0
17.09.2018 20:00:00 20,3 17,1 18 10 W 1014,1 15 -
17.09.2018 19:00:00 21,0 16,6 21 11 W 1012,8 9 0,0
17.09.2018 18:00:00 22,1 17,0 21 11 W 1012,7 12 0,0
17.09.2018 17:00:00 22,6 17,1 24 13 W 1012,8 15 -
17.09.2018 16:00:00 22,5 17,0 24 13 W 1012,9 12 0,0
17.09.2018 15:00:00 23,8 17,3 15 8 W 1013,0 9 0,0
17.09.2018 14:00:00 25,0 17,7 4 2 N 1013,4 20 -
17.09.2018 13:00:00 24,3 18,5 4 2 ENE 1013,8 13 0,0
17.09.2018 12:00:00 24,7 18,6 5 3 SW 1014,0 13 0,0
17.09.2018 11:00:00 21,2 17,4 5 3 E 1014,5 25 -
17.09.2018 10:00:00 20,6 18,4 8 4 SE 1014,6 11 0,0
17.09.2018 09:00:00 18,1 17,1 11 6 SE 1014,9 6 0,0
17.09.2018 08:00:00 16,9 16,3 16 9 SE 1015,4 6 -
17.09.2018 07:00:00 16,8 16,0 16 9 SE 1015,8 - 0,0
17.09.2018 06:00:00 17,5 16,5 16 9 ESE 1016,5 8 0,0
17.09.2018 05:00:00 17,0 15,7 11 6 ESE 1017,3 10 -
17.09.2018 04:00:00 17,2 15,9 13 7 ESE 1018,1 11 0,0
17.09.2018 03:00:00 17,4 15,9 5 3 E 1018,8 13 0,0
17.09.2018 02:00:00 17,6 16,3 8 4 SE 1019,7 10 -
17.09.2018 01:00:00 18,0 16,2 9 5 SE 1020,3 9 0,0
17.09.2018 00:00:00 18,8 16,4 0 0 N 1020,8 11 0,0
16.09.2018 23:00:00 19,2 16,8 5 3 WSW 1021,4 14 -
16.09.2018 22:00:00 19,3 16,9 5 3 WSW 1021,4 19 0,0
16.09.2018 21:00:00 19,0 17,0 8 4 WSW 1021,2 19 0,0
16.09.2018 20:00:00 19,1 16,9 13 7 W 1021,2 12 -
16.09.2018 19:00:00 19,5 17,1 13 7 W 1021,2 18 0,0
16.09.2018 18:00:00 19,7 18,0 13 7 W 1020,9 13 0,0
16.09.2018 17:00:00 19,2 17,3 16 9 W 1021,2 10 -
16.09.2018 16:00:00 19,9 16,9 18 10 WNW 1020,9 17 0,0
16.09.2018 15:00:00 20,7 17,7 18 10 W 1021,2 18 0,0
16.09.2018 14:00:00 19,7 17,7 22 12 W 1021,8 8 -
16.09.2018 13:00:00 19,2 17,5 21 11 W 1022,1 8 0,0
16.09.2018 12:00:00 19,0 17,8 16 9 W 1021,8 8 0,0
16.09.2018 11:00:00 18,5 17,5 21 11 W 1021,3 7 -
16.09.2018 10:00:00 17,8 17,3 15 8 W 1020,6 4,6 0,0
16.09.2018 09:00:00 17,1 16,8 15 8 WSW 1020,2 2,3 0,0
16.09.2018 08:00:00 17,0 16,4 24 13 W 1020,0 3,0 -
16.09.2018 07:00:00 17,2 16,6 24 13 W 1019,6 7 0,0
16.09.2018 06:00:00 17,1 16,1 16 9 WSW 1018,8 12 0,0
16.09.2018 05:00:00 17,8 16,3 9 5 WSW 1018,6 10 -
16.09.2018 04:00:00 18,0 16,8 8 4 WSW 1018,7 14 0,0
16.09.2018 03:00:00 17,7 16,4 11 6 W 1019,1 12 0,0
16.09.2018 02:00:00 18,6 16,9 5 3 W 1019,2 18 -
16.09.2018 01:00:00 18,6 16,9 5 3 SE 1019,4 19 0,0
16.09.2018 00:00:00 18,1 16,6 9 5 SE 1019,9 15 0,0
15.09.2018 23:00:00 18,8 16,8 9 5 ESE 1019,9 18 -
15.09.2018 22:00:00 18,8 16,6 16 9 ESE 1019,6 20 0,0
15.09.2018 21:00:00 19,3 16,3 21 11 ESE 1019,3 19 0,0
15.09.2018 20:00:00 19,8 16,2 24 13 E 1019,1 10 -
15.09.2018 19:00:00 20,0 16,2 26 14 E 1019,3 11 0,0
15.09.2018 18:00:00 20,0 16,8 29 16 E 1019,2 12 0,0
15.09.2018 17:00:00 20,0 16,6 29 16 E 1019,2 10 -
15.09.2018 16:00:00 20,2 16,6 29 16 E 1019,5 14 0,0
15.09.2018 15:00:00 20,3 16,7 28 15 E 1020,0 14 0,0
15.09.2018 14:00:00 20,4 16,6 29 16 E 1020,3 14 -
15.09.2018 13:00:00 20,2 16,0 31 17 E 1020,8 15 0,0
15.09.2018 12:00:00 20,1 15,5 34 18 E 1021,4 15 0,0
15.09.2018 11:00:00 20,3 16,1 28 15 E 1021,7 14 -
15.09.2018 10:00:00 19,6 16,1 26 14 E 1022,0 10 0,0
15.09.2018 09:00:00 18,8 15,7 22 12 E 1021,8 11 0,0
15.09.2018 08:00:00 18,2 15,4 22 12 E 1021,5 14 -
15.09.2018 07:00:00 18,6 15,8 18 10 E 1021,7 12 0,0
15.09.2018 06:00:00 18,7 15,9 21 11 E 1021,8 13 0,0
15.09.2018 05:00:00 18,2 16,0 18 10 E 1022,2 12 -
15.09.2018 04:00:00 18,3 16,1 22 12 E 1022,5 12 0,0
15.09.2018 03:00:00 18,3 16,3 18 10 E 1022,8 13 0,0
15.09.2018 02:00:00 18,6 16,2 13 7 E 1023,3 14 -
15.09.2018 01:00:00 18,9 16,7 18 10 E 1023,3 14 0,0
15.09.2018 00:00:00 18,8 16,9 15 8 E 1023,2 9 0,0
14.09.2018 23:00:00 19,0 17,0 13 7 E 1023,1 12 -
14.09.2018 22:00:00 19,1 17,2 18 10 E 1022,9 11 0,0

tt = Température de l'air
td = dewpoint
ff = Vitesse du vent
dd = Direction du vent
ppp = reduced air pressure
vv = visibility
rr = Quantités de précipitations

stations d'obs. à proximité